Radiation Dose at Monitoring Post of Fukushima Daini Nuclear Power Station
Date,Time,MP-1(microSv/h),MP-2(microSv/h),MP-3(microSv/h),MP-4(microSv/h),MP-5(microSv/h),MP-6(microSv/h),MP-7(microSv/h),Wind Direction,Wind Velocity(m/s),Rain
2023/09/22,00:00,0.149,0.133,0.222,0.210,0.213,0.122,0.079,south,3.1,Yes
2023/09/22,00:10,0.151,0.134,0.221,0.209,0.212,0.122,0.080,south,4.7,Yes
2023/09/22,00:20,0.153,0.137,0.226,0.212,0.213,0.124,0.081,south-southwest,4.0,Yes
2023/09/22,00:30,0.153,0.138,0.226,0.214,0.217,0.126,0.083,south-southwest,3.1,Yes
2023/09/22,00:40,0.153,0.136,0.224,0.212,0.217,0.126,0.083,south-southwest,2.1,Yes
2023/09/22,00:50,0.156,0.138,0.226,0.213,0.214,0.125,0.082,south-southwest,2.1,Yes
2023/09/22,01:00,0.155,0.138,0.227,0.215,0.214,0.126,0.083,south-southwest,2.2,Yes
2023/09/22,01:10,0.154,0.138,0.225,0.214,0.217,0.127,0.084,south-southwest,3.1,Yes
2023/09/22,01:20,0.154,0.138,0.226,0.211,0.217,0.126,0.083,south-southwest,4.0,Yes
2023/09/22,01:30,0.155,0.138,0.226,0.213,0.212,0.125,0.082,southwest,5.1,Yes
2023/09/22,01:40,0.153,0.137,0.224,0.214,0.216,0.124,0.083,southwest,4.9,Yes
2023/09/22,01:50,0.151,0.136,0.222,0.210,0.214,0.124,0.081,southwest,4.6,Yes
2023/09/22,02:00,0.152,0.136,0.224,0.210,0.213,0.123,0.080,southwest,0.7,No
2023/09/22,02:10,0.153,0.136,0.222,0.212,0.212,0.121,0.080,south,1.3,No
2023/09/22,02:20,0.150,0.134,0.219,0.209,0.214,0.122,0.079,south,1.5,No
2023/09/22,02:30,0.149,0.134,0.222,0.208,0.212,0.122,0.078,south,2.0,No
2023/09/22,02:40,0.151,0.134,0.222,0.210,0.210,0.121,0.077,south-southwest,1.6,No
2023/09/22,02:50,0.149,0.133,0.219,0.209,0.210,0.120,0.078,south,1.9,No
2023/09/22,03:00,0.147,0.133,0.218,0.206,0.213,0.121,0.077,south,0.9,No
2023/09/22,03:10,0.149,0.133,0.221,0.207,0.211,0.121,0.077,south-southeast,2.1,No
2023/09/22,03:20,0.149,0.133,0.220,0.209,0.209,0.120,0.078,south-southeast,1.8,No
2023/09/22,03:30,0.148,0.132,0.217,0.207,0.210,0.120,0.077,south-southeast,1.5,Yes
2023/09/22,03:40,0.148,0.132,0.220,0.206,0.212,0.121,0.076,south,1.5,Yes
2023/09/22,03:50,0.150,0.132,0.219,0.208,0.210,0.121,0.077,-,CALM,Yes
2023/09/22,04:00,0.149,0.131,0.218,0.208,0.208,0.120,0.077,northwest,3.0,No
2023/09/22,04:10,0.147,0.132,0.218,0.206,0.211,0.120,0.077,northwest,3.8,Yes
2023/09/22,04:20,0.147,0.133,0.220,0.206,0.212,0.120,0.076,north-northwest,3.0,Yes
2023/09/22,04:30,0.150,0.132,0.219,0.209,0.210,0.121,0.076,northwest,3.3,Yes
2023/09/22,04:40,0.149,0.132,0.217,0.207,0.208,0.120,0.078,west-northwest,4.9,Yes
2023/09/22,04:50,0.149,0.133,0.222,0.208,0.211,0.121,0.079,north-northwest,4.4,Yes
2023/09/22,05:00,0.149,0.132,0.220,0.209,0.213,0.121,0.078,northwest,4.7,Yes
2023/09/22,05:10,0.151,0.132,0.219,0.209,0.212,0.120,0.078,northwest,5.6,Yes
2023/09/22,05:20,0.149,0.133,0.221,0.206,0.209,0.120,0.077,north-northwest,5.8,Yes
2023/09/22,05:30,0.148,0.133,0.219,0.208,0.212,0.120,0.077,northwest,6.2,Yes
2023/09/22,05:40,0.149,0.132,0.218,0.208,0.212,0.121,0.077,north-northwest,6.2,Yes
2023/09/22,05:50,0.148,0.133,0.220,0.206,0.209,0.120,0.077,northwest,5.7,No
2023/09/22,06:00,0.149,0.133,0.220,0.205,0.210,0.120,0.077,northwest,7.4,No
2023/09/22,06:10,0.149,0.132,0.218,0.209,0.212,0.120,0.077,northwest,10.1,No
2023/09/22,06:20,0.149,0.131,0.220,0.207,0.210,0.119,0.077,northwest,10.7,No
2023/09/22,06:30,0.149,0.133,0.219,0.206,0.209,0.120,0.077,west-northwest,9.5,Yes
2023/09/22,06:40,0.147,0.132,0.217,0.209,0.213,0.120,0.076,west-northwest,8.1,Yes
2023/09/22,06:50,0.150,0.132,0.219,0.207,0.212,0.119,0.078,west-northwest,7.7,No
2023/09/22,07:00,0.148,0.132,0.220,0.205,0.210,0.120,0.077,northwest,4.5,No
2023/09/22,07:10,0.147,0.133,0.218,0.207,0.210,0.119,0.076,north-northwest,4.8,Yes
2023/09/22,07:20,0.148,0.131,0.219,0.209,0.212,0.120,0.077,north,4.5,Yes
2023/09/22,07:30,0.149,0.132,0.220,0.206,0.210,0.120,0.078,north,4.8,Yes
2023/09/22,07:40,0.149,0.133,0.218,0.206,0.208,0.121,0.077,north,4.9,Yes
2023/09/22,07:50,0.148,0.132,0.219,0.209,0.212,0.120,0.077,north-northwest,4.0,Yes
2023/09/22,08:00,0.150,0.133,0.220,0.206,0.212,0.120,0.079,north-northwest,4.8,Yes
2023/09/22,08:10,0.151,0.135,0.220,0.206,0.210,0.122,0.079,north-northwest,4.8,Yes
2023/09/22,08:20,0.151,0.136,0.222,0.211,0.212,0.123,0.081,north-northwest,4.6,Yes
2023/09/22,08:30,0.153,0.137,0.226,0.212,0.216,0.123,0.082,north-northwest,5.1,Yes
2023/09/22,08:40,0.154,0.137,0.223,0.210,0.215,0.124,0.082,north-northwest,4.6,Yes
2023/09/22,08:50,0.153,0.137,0.224,0.212,0.214,0.124,0.080,north-northwest,4.6,Yes
2023/09/22,09:00,0.154,0.136,0.224,0.211,0.214,0.122,0.080,northwest,3.4,Yes
2023/09/22,09:10,0.153,0.137,0.223,0.208,0.213,0.123,0.080,northwest,3.0,Yes
2023/09/22,09:20,0.151,0.136,0.221,0.210,0.210,0.123,0.079,north-northwest,2.3,Yes
2023/09/22,09:30,0.150,0.135,0.224,0.211,0.212,0.123,0.080,north-northwest,3.1,Yes
2023/09/22,09:40,0.151,0.134,0.222,0.209,0.214,0.122,0.079,northwest,2.9,Yes
2023/09/22,09:50,0.151,0.137,0.221,0.207,0.212,0.121,0.078,northwest,2.7,Yes
2023/09/22,10:00,0.150,0.135,0.219,0.207,0.210,0.123,0.078,northwest,1.9,Yes
2023/09/22,10:10,0.150,0.134,0.218,0.206,0.211,0.122,0.078,north,2.7,Yes
2023/09/22,10:20,0.149,0.134,0.218,0.207,0.209,0.121,0.077,north-northwest,2.4,Yes
2023/09/22,10:30,0.147,0.132,0.218,0.209,0.209,0.120,0.077,north,2.0,Yes
2023/09/22,10:40,0.148,0.132,0.218,0.210,0.211,0.121,0.078,northeast,3.1,No
2023/09/22,10:50,0.147,0.132,0.218,0.209,0.212,0.121,0.077,northeast,3.3,No
2023/09/22,11:00,0.147,0.131,0.221,0.207,0.212,0.120,0.076,northeast,5.1,No
2023/09/22,11:10,0.148,0.132,0.221,0.206,0.210,0.120,0.076,northeast,5.4,Yes
2023/09/22,11:20,0.150,0.133,0.220,0.204,0.209,0.121,0.075,northeast,4.9,Yes
2023/09/22,11:30,0.151,0.133,0.219,0.206,0.209,0.120,0.077,northeast,5.4,Yes
2023/09/22,11:40,0.149,0.133,0.218,0.208,0.210,0.120,0.077,north-northeast,4.7,No
2023/09/22,11:50,0.147,0.132,0.221,0.208,0.212,0.119,0.077,northeast,5.0,No
2023/09/22,12:00,0.149,0.132,0.220,0.207,0.211,0.122,0.077,northeast,5.1,No
2023/09/22,12:10,0.149,0.133,0.217,0.205,0.209,0.120,0.076,northeast,5.3,Yes
2023/09/22,12:20,0.148,0.132,0.218,0.207,0.210,0.119,0.077,north-northeast,5.6,Yes
2023/09/22,12:30,0.148,0.132,0.221,0.208,0.212,0.119,0.077,north-northeast,4.8,No
2023/09/22,12:40,0.147,0.132,0.220,0.206,0.211,0.120,0.077,northeast,4.9,Yes
2023/09/22,12:50,0.149,0.133,0.219,0.206,0.209,0.120,0.076,northeast,4.9,No
2023/09/22,13:00,0.148,0.133,0.217,0.205,0.209,0.121,0.076,northeast,4.1,Yes
2023/09/22,13:10,0.148,0.132,0.220,0.208,0.211,0.120,0.077,northeast,5.7,Yes
2023/09/22,13:20,0.147,0.132,0.220,0.207,0.212,0.119,0.076,northeast,4.7,Yes
2023/09/22,13:30,0.150,0.133,0.218,0.205,0.209,0.120,0.076,northeast,4.4,Yes
2023/09/22,13:40,0.148,0.132,0.220,0.207,0.211,0.121,0.076,east-northeast,6.0,Yes
2023/09/22,13:50,0.147,0.131,0.222,0.208,0.212,0.121,0.078,east-northeast,4.8,Yes
2023/09/22,14:00,0.149,0.132,0.219,0.207,0.211,0.121,0.078,northeast,4.8,Yes
2023/09/22,14:10,0.150,0.133,0.219,0.208,0.210,0.121,0.076,northeast,4.5,Yes
2023/09/22,14:20,0.149,0.133,0.220,0.208,0.213,0.120,0.077,northeast,4.6,Yes
2023/09/22,14:30,0.148,0.132,0.219,0.206,0.211,0.120,0.077,east-northeast,4.4,Yes
2023/09/22,14:40,0.150,0.134,0.218,0.206,0.209,0.121,0.077,east-northeast,4.0,Yes
2023/09/22,14:50,0.150,0.133,0.222,0.209,0.211,0.121,0.078,east-northeast,4.4,Yes
2023/09/22,15:00,0.149,0.135,0.220,0.208,0.212,0.121,0.078,east-northeast,4.0,Yes
2023/09/22,15:10,0.151,0.134,0.220,0.207,0.210,0.123,0.078,east-northeast,3.3,Yes
2023/09/22,15:20,0.149,0.132,0.222,0.210,0.212,0.122,0.078,northeast,3.6,Yes
2023/09/22,15:30,0.148,0.133,0.218,0.207,0.211,0.120,0.078,northeast,3.5,No
2023/09/22,15:40,0.149,0.134,0.220,0.204,0.208,0.121,0.077,east-northeast,3.3,No
2023/09/22,15:50,0.150,0.131,0.219,0.206,0.210,0.121,0.076,east-northeast,2.8,No
2023/09/22,16:00,0.148,0.131,0.218,0.207,0.212,0.120,0.077,east-northeast,3.3,No
2023/09/22,16:10,0.148,0.133,0.216,0.206,0.208,0.120,0.077,east-northeast,4.0,No
2023/09/22,16:20,0.150,0.132,0.219,0.205,0.207,0.120,0.077,east-northeast,3.5,Yes
2023/09/22,16:30,0.149,0.132,0.219,0.206,0.212,0.120,0.077,east,3.6,Yes
2023/09/22,16:40,0.147,0.134,0.218,0.206,0.210,0.119,0.077,east,3.0,Yes
2023/09/22,16:50,0.149,0.133,0.218,0.205,0.208,0.120,0.076,east,3.5,Yes
2023/09/22,17:00,0.149,0.132,0.219,0.208,0.210,0.119,0.077,east,2.5,Yes
2023/09/22,17:10,0.148,0.132,0.217,0.206,0.210,0.119,0.077,east,2.3,Yes
2023/09/22,17:20,0.148,0.131,0.220,0.204,0.209,0.120,0.077,east,1.7,No
2023/09/22,17:30,0.149,0.131,0.218,0.207,0.208,0.119,0.076,east-southeast,1.9,No
2023/09/22,17:40,0.147,0.132,0.216,0.207,0.211,0.119,0.076,northeast,0.8,No
2023/09/22,17:50,0.147,0.132,0.220,0.204,0.209,0.120,0.077,east,2.1,Yes
2023/09/22,18:00,0.148,0.132,0.217,0.206,0.208,0.120,0.076,-,CALM,Yes
2023/09/22,18:10,0.149,0.133,0.218,0.205,0.210,0.119,0.076,north,1.3,No
2023/09/22,18:20,0.147,0.132,0.220,0.205,0.210,0.120,0.077,north-northeast,0.9,No
2023/09/22,18:30,0.149,0.132,0.217,0.207,0.208,0.120,0.075,northeast,0.8,No
2023/09/22,18:40,0.149,0.133,0.218,0.206,0.211,0.119,0.077,-,CALM,No
2023/09/22,18:50,0.147,0.132,0.220,0.205,0.209,0.119,0.077,-,CALM,No
2023/09/22,19:00,0.149,0.132,0.218,0.207,0.207,0.119,0.076,-,CALM,No
2023/09/22,19:10,0.148,0.133,0.218,0.206,0.211,0.118,0.077,northeast,0.6,No
2023/09/22,19:20,0.148,0.132,0.220,0.205,0.209,0.119,0.077,-,CALM,No
2023/09/22,19:30,0.149,0.131,0.217,0.207,0.208,0.119,0.076,-,CALM,No
2023/09/22,19:40,0.150,0.132,0.218,0.206,0.210,0.118,0.076,west-northwest,0.9,No
2023/09/22,19:50,0.149,0.130,0.218,0.206,0.210,0.119,0.077,-,CALM,No
2023/09/22,20:00,0.148,0.132,0.216,0.207,0.207,0.120,0.077,-,CALM,No
2023/09/22,20:10,0.149,0.132,0.219,0.205,0.210,0.119,0.077,-,CALM,No
2023/09/22,20:20,0.148,0.131,0.219,0.205,0.209,0.119,0.076,-,CALM,No
2023/09/22,20:30,0.147,0.133,0.218,0.207,0.210,0.119,0.075,-,CALM,No
2023/09/22,20:40,0.149,0.132,0.220,0.205,0.211,0.118,0.077,west-northwest,0.8,No
2023/09/22,20:50,0.147,0.132,0.218,0.206,0.208,0.120,0.076,-,CALM,No
2023/09/22,21:00,0.149,0.132,0.219,0.207,0.210,0.119,0.077,northwest,0.6,No
2023/09/22,21:10,0.149,0.132,0.218,0.205,0.209,0.119,0.077,west,0.7,No
2023/09/22,21:20,0.148,0.132,0.218,0.208,0.208,0.119,0.077,northwest,0.6,No
2023/09/22,21:30,0.149,0.131,0.219,0.205,0.211,0.120,0.078,-,CALM,No
2023/09/22,21:40,0.148,0.132,0.217,0.206,0.210,0.119,0.076,-,CALM,No
2023/09/22,21:50,0.149,0.133,0.220,0.205,0.210,0.120,0.075,-,CALM,No
2023/09/22,22:00,0.149,0.131,0.219,0.204,0.211,0.119,0.077,-,CALM,No
2023/09/22,22:10,0.148,0.133,0.218,0.207,0.208,0.119,0.075,-,CALM,No
2023/09/22,22:20,0.149,0.132,0.219,0.206,0.209,0.120,0.077,-,CALM,No
2023/09/22,22:30,0.149,0.131,0.218,0.205,0.209,0.120,0.077,-,CALM,No
2023/09/22,22:40,0.148,0.132,0.220,0.207,0.208,0.119,0.077,-,CALM,No
2023/09/22,22:50,0.150,0.132,0.218,0.205,0.211,0.119,0.077,north,0.7,No
2023/09/22,23:00,0.148,0.132,0.217,0.207,0.210,0.119,0.076,north-northwest,0.6,No
2023/09/22,23:10,0.149,0.132,0.219,0.207,0.207,0.119,0.076,north,0.8,No
2023/09/22,23:20,0.150,0.132,0.217,0.205,0.211,0.120,0.078,northwest,0.6,No
2023/09/22,23:30,0.148,0.133,0.219,0.207,0.209,0.118,0.076,north,0.8,No
2023/09/22,23:40,0.149,0.131,0.218,0.205,0.209,0.119,0.076,-,CALM,No
2023/09/22,23:50,0.149,0.132,0.218,0.205,0.211,0.120,0.077,northwest,0.6,No
